Weather in Psebaj

Russia / Krasnodar Krai     44°06′57″N   40°47′54″E
temp.,
°C
wind,
m/s
gust,
m/s
humid.,
%
clouds,
%
prec.,
mm/h
press.,
hPa
HPBL,
m
7 august, sun
sun700:00+13ssw32790 0.0 101133
03:00+12s22760 0.0 101130
06:00+13ssw22773 0.0 101134
09:00+19ne3263100 0.0 1010741
12:00+22nne325176 0.1 10091515
15:00+20ene2367100 0.8 1009790
18:00+16ese238998 0.9 101260
21:00+14s33945 1.3 101245
8 august, mon
mon800:00+13ssw32922 0.1 101234
03:00+12ssw22900 0.1 101227
06:00+12ssw22880 0.0 101428
09:00+19nne21651 0.0 1013744
12:00+22ne335661 0.2 10131613
15:00+22e454899 0.6 10131926
18:00+19sse247084 0.1 1014175
21:00+14ssw22830 0.1 101528
9 august, tue
tue900:00+13ssw32830 0.0 101534
03:00+13s33780 0.0 101540
06:00+13s22790 0.0 101536
09:00+20ne23610 0.0 1014818
12:00+24e46430 0.0 10131952
15:00+25e56390 0.0 10122154
18:00+22e24600 0.0 1012219
21:00+15ssw32730 0.0 101240
10 august, wed
wed1000:00+15ssw32700 0.0 101239
03:00+15ssw33720 0.0 101140
06:00+15ssw32720 0.0 101035
09:00+23ne21540 0.0 1008530
12:00+26nne32441 0.0 10081267
15:00+28nne22360 0.0 10071609
18:00+22s346542 0.3 100772
21:00+18ssw33702 0.3 100845
11 august, thu
thu1100:00+18ssw33660 0.0 100844
03:00+17ssw32725 0.0 100833
06:00+16ssw3388100 0.4 100950
09:00+24ne1256100 0.4 1008691
12:00+18s239286 1.3 101072
15:00+25ne22502 1.4 1009955
18:00+24ne11681 0.5 100934
21:00+18ssw33800 1.3 101144